Kuchera_Ratio
11.4 8.4 7.8 7.6 6.2 4.9 5.1 4.5 3.3 0.0 0.0 0.0 0.0 0.0 0.0 0.0 0.0 0.0 0.0 0.0 0.0 0.0 0.0 0.0 0.0 0.0 0.0
12.4 11.8 11.6 8.1 7.8 8.9 5.2 1.0 4.5 0.0 0.0 0.0 0.0 0.0 0.0 0.0 0.0 0.0 0.0 0.0 0.0 0.0 0.0 0.0 0.0 0.0 0.0
13.1 12.5 12.4 10.7 10.2 9.2 8.5 7.1 2.7 0.0 0.0 0.0 0.0 0.0 0.0 0.0 0.0 0.0 0.0 0.0 0.0 0.0 0.0 0.0 0.0 0.0 0.0
13.0 12.5 12.5 11.6 12.6 12.8 12.1 9.4 8.7 1.7 0.0 0.0 0.0 0.0 0.0 0.0 0.0 0.0 0.0 0.0 0.0 0.0 0.0 0.0 0.0 0.0 0.0
13.2 12.8 12.7 13.1 13.2 12.5 12.3 12.2 11.7 7.9 7.9 6.3 4.3 4.1 3.0 0.0 0.0 0.0 0.0 0.0 0.0 0.0 0.0 0.0 0.0 0.0 0.0
13.7 13.9 13.1 13.5 13.2 13.0 13.1 12.9 14.5 6.0 10.7 9.8 5.8 7.2 4.8 4.5 0.0 0.0 0.0 0.0 0.0 0.0 0.0 0.0 0.0 0.0 0.0
13.7 13.9 14.2 12.2 12.4 13.0 13.1 13.3 13.4 9.8 12.2 12.5 8.3 11.4 6.5 2.1 0.0 0.0 0.0 0.0 0.0 0.0 0.0 0.0 0.0 0.0 0.0
11.8 12.9 11.9 10.4 10.9 10.4 11.7 12.2 11.6 9.8 9.8 13.7 10.5 11.3 7.9 6.6 0.0 0.0 0.0 0.0 0.0 0.0 0.0 0.0 0.0 0.0 0.0
1.0 1.3 1.6 0.9 2.6 11.0 12.8 12.9 13.2 12.3 9.8 13.4 12.0 10.9 11.0 9.0 7.1 0.0 0.0 0.0 0.0 0.0 0.0 0.0 0.0 0.0 0.0
9.8 7.7 4.4 7.1 1.5 7.0 12.8 14.1 14.2 13.8 10.3 13.6 12.6 12.9 14.8 10.3 7.8 8.0 7.4 2.4 0.0 0.0 0.0 0.0 0.0 3.1 4.3
12.8 12.6 12.1 11.9 11.2 10.3 10.3 12.5 14.4 14.9 10.3 12.1 13.9 14.4 14.4 13.6 13.3 10.4 10.0 9.6 9.8 7.7 2.9 1.8 1.5 2.0 6.9
12.3 12.9 13.0 12.6 11.8 11.2 10.9 11.7 12.0 12.2 10.6 11.3 14.9 14.6 15.4 15.8 15.6 12.9 11.5 10.7 10.5 10.8 10.0 6.2 3.6 2.3 1.6
12.5 13.3 13.0 12.3 12.0 12.7 12.3 12.4 12.7 12.4 9.2 11.7 13.8 15.1 15.9 16.5 16.6 15.5 14.5 13.3 12.3 12.6 12.2 11.9 11.8 10.8 12.3
14.0 13.3 13.6 14.4 14.5 14.3 15.4 15.5 16.3 15.4 12.7 12.7 13.3 14.3 16.8 16.6 15.6 15.8 14.8 15.8 14.4 13.0 12.7 12.3 11.3 10.3 10.7
13.8 14.0 14.4 14.1 14.0 14.8 15.4 16.3 17.4 17.1 16.6 15.5 13.4 13.5 14.5 15.6 16.9 15.5 15.3 15.0 13.5 13.4 13.2 13.5 12.1 10.2 10.6
14.5 14.5 15.2 15.8 16.1 15.9 15.1 16.8 17.2 16.6 16.8 16.3 17.4 17.6 17.8 14.8 12.2 15.4 14.9 14.8 13.8 13.2 13.1 14.4 13.6 10.7 8.9
14.9 15.2 15.8 16.6 15.1 15.8 16.0 16.1 16.5 16.3 16.2 16.0 17.7 19.0 19.4 20.0 15.2 8.9 15.4 14.7 14.6 14.8 13.9 14.0 14.5 13.0 10.8